Time,TemperatureF,DewpointF,PressureIn,WindDirection,WindDirectionDegrees,WindSpeedMPH,WindSpeedGustMPH,Humidity,HourlyPrecipIn,Conditions,Clouds,dailyrainin,SoftwareType,DateUTC
2013-02-10 00:05:00,25.8,19.3,30.32,ESE,109,0.0,3.0,76,0.00,,,0.00,Wunderground v.1.15,2013-02-10 05:05:00,
2013-02-10 01:05:00,24.7,19.1,30.31,ESE,109,0.0,3.0,79,0.00,,,0.00,Wunderground v.1.15,2013-02-10 06:05:00,
2013-02-10 02:05:00,23.9,18.9,30.29,ESE,109,0.0,3.0,81,0.00,,,0.00,Wunderground v.1.15,2013-02-10 07:05:00,
2013-02-10 03:05:00,26.7,20.1,30.27,East,97,0.0,3.0,76,0.00,,,0.00,Wunderground v.1.15,2013-02-10 08:05:00,
2013-02-10 04:05:00,28.1,20.9,30.26,SSW,194,0.0,1.0,74,0.00,,,0.00,Wunderground v.1.15,2013-02-10 09:05:00,
2013-02-10 05:05:00,28.7,21.1,30.27,SSW,194,0.0,1.0,73,0.00,,,0.00,Wunderground v.1.15,2013-02-10 10:05:00,
2013-02-10 06:05:00,29.3,21.4,30.25,ESE,123,1.0,1.0,72,0.00,,,0.00,Wunderground v.1.15,2013-02-10 11:05:00,
2013-02-10 07:05:00,30.0,22.1,30.22,East,91,1.0,2.0,72,0.00,,,0.00,Wunderground v.1.15,2013-02-10 12:05:00,
2013-02-10 08:05:00,30.4,22.4,30.24,SSW,194,0.0,2.0,72,0.00,,,0.00,Wunderground v.1.15,2013-02-10 13:05:00,
2013-02-10 09:05:00,33.7,23.5,30.21,South,180,2.0,2.0,66,0.00,,,0.00,Wunderground v.1.15,2013-02-10 14:05:00,
2013-02-10 10:05:00,35.4,24.0,30.19,SE,141,1.0,2.0,63,0.00,,,0.00,Wunderground v.1.15,2013-02-10 15:05:00,
2013-02-10 11:05:00,37.4,24.8,30.19,South,171,1.0,2.0,60,0.00,,,0.00,Wunderground v.1.15,2013-02-10 16:05:00,
2013-02-10 12:05:00,39.3,26.2,30.15,ESE,107,1.0,2.0,59,0.00,,,0.00,Wunderground v.1.15,2013-02-10 17:05:00,
2013-02-10 13:05:00,43.5,27.9,30.08,East,99,2.0,2.0,54,0.00,,,0.00,Wunderground v.1.15,2013-02-10 18:05:00,
2013-02-10 14:05:00,47.6,29.9,30.05,SSE,150,1.0,2.0,50,0.00,,,0.00,Wunderground v.1.15,2013-02-10 19:05:00,
2013-02-10 15:05:00,49.1,30.2,30.01,South,178,2.0,2.0,48,0.00,,,0.00,Wunderground v.1.15,2013-02-10 20:05:00,
2013-02-10 16:05:00,48.2,30.4,30.02,SSE,157,1.0,3.0,50,0.00,,,0.00,Wunderground v.1.15,2013-02-10 21:05:00,
2013-02-10 17:05:00,46.8,30.6,30.00,SSE,159,2.0,3.0,53,0.00,,,0.00,Wunderground v.1.15,2013-02-10 22:05:00,
2013-02-10 18:05:00,46.9,31.1,29.94,SSE,156,2.0,3.0,54,0.00,,,0.00,Wunderground v.1.15,2013-02-10 23:05:00,
2013-02-10 19:05:00,47.2,33.2,29.91,SSE,168,2.0,3.0,58,0.00,,,0.00,Wunderground v.1.15,2013-02-11 00:05:00,
2013-02-10 20:05:00,48.5,36.5,29.90,SSE,166,2.0,3.0,63,0.00,,,0.00,Wunderground v.1.15,2013-02-11 01:05:00,
2013-02-10 21:05:00,46.7,39.9,29.88,SE,128,2.0,5.0,77,0.00,,,0.00,Wunderground v.1.15,2013-02-11 02:05:00,
2013-02-10 22:05:00,46.3,40.8,29.88,SSW,213,3.0,5.0,81,0.00,,,0.00,Wunderground v.1.15,2013-02-11 03:05:00,
2013-02-10 23:05:00,46.2,41.6,29.85,SSE,150,3.0,5.0,84,0.00,,,0.00,Wunderground v.1.15,2013-02-11 04:05:00,